FLOCK 4E'-5 (46817 NORAD) Tracking and Keplerian Element Data

This shows tracking and keplerian element data for the satellite.

Feedback or suggestion? Click here.




ElementValue
Catalog46817
NameFLOCK 4E'-5
Epoch Orbit428
Epoch Day331.17302052
Epoch Year2020
RAAN31.3165
Inclination97.4987
Eccentricity0.0014422
Argument of Perigee209.3481
Mean Anonmoly235.4625
Mean Motion15.16692813
Decay Rate5.55E-05
L11 46817U 20077E 20331.17302052 .00005550 00000-0 28604-3 0 9999
L22 46817 97.4987 31.3165 0014422 209.3481 235.4625 15.16692813 4284

Live tracking and technical data element details for FLOCK 4E'-5 (NORAD 46817). FLOCK 4E'-5 can be tracked NOW for your location showing map with azimuth and elevation plus other details from your city location.

Track the satellite on the map from your city or location and see movement details for azimuth, elevation, latitude, longitude, range, height, and movement on the map or in text.







IsCatalogInMostPopularTable: catalog: 46817, numindb: 10
Update: records affected: 1



GetName: 46817 FLOCK 4E'-5

Hit Count: updated at: Thu, 26 Nov 2020 21:47:48 GMT